owner,sensor,date,latitude,longitude,vertical_datum,mass_concentration_of_oxygen_in_sea_water,qcFlag 
DISL,ioos:station:DISL:BSCA:1,2018-10-01T00:30:00Z,30.3288,-87.8293,1.848,0.66,1111122 
DISL,ioos:station:DISL:BSCA:1,2018-10-01T01:00:00Z,30.3288,-87.8293,1.844,2.63,1111122 
DISL,ioos:station:DISL:BSCA:1,2018-10-01T02:30:00Z,30.3288,-87.8293,1.843,4.08,1111122 
DISL,ioos:station:DISL:BSCA:1,2018-10-01T03:00:00Z,30.3288,-87.8293,1.862,1.91,1111122 
DISL,ioos:station:DISL:BSCA:1,2018-10-01T04:00:00Z,30.3288,-87.8293,1.878,4.24,1111122 
DISL,ioos:station:DISL:BSCA:1,2018-10-01T05:30:00Z,30.3288,-87.8293,1.917,3.68,1111122 
DISL,ioos:station:DISL:BSCA:1,2018-10-01T06:00:00Z,30.3288,-87.8293,1.922,2.75,1111122 
DISL,ioos:station:DISL:BSCA:1,2018-10-01T07:00:00Z,30.3288,-87.8293,1.951,2.96,1111122 
DISL,ioos:station:DISL:BSCA:1,2018-10-01T08:30:00Z,30.3288,-87.8293,1.975,3.9,1111122 
DISL,ioos:station:DISL:BSCA:1,2018-10-01T09:30:00Z,30.3288,-87.8293,1.981,3.54,1111122 
DISL,ioos:station:DISL:BSCA:1,2018-10-01T10:00:00Z,30.3288,-87.8293,1.983,2.95,1111122 
DISL,ioos:station:DISL:BSCA:1,2018-10-01T11:00:00Z,30.3288,-87.8293,1.978,3.15,1111122 
DISL,ioos:station:DISL:BSCA:1,2018-10-01T12:30:00Z,30.3288,-87.8293,1.893,4.11,1111122 
DISL,ioos:station:DISL:BSCA:1,2018-10-01T13:00:00Z,30.3288,-87.8293,1.867,4.2,1111122 
DISL,ioos:station:DISL:BSCA:1,2018-10-01T14:00:00Z,30.3288,-87.8293,1.809,4.11,1111122 
DISL,ioos:station:DISL:BSCA:1,2018-10-01T15:30:00Z,30.3288,-87.8293,1.709,4.36,1111122 
DISL,ioos:station:DISL:BSCA:1,2018-10-01T16:30:00Z,30.3288,-87.8293,1.649,4.28,1111122 
DISL,ioos:station:DISL:BSCA:1,2018-10-01T17:30:00Z,30.3288,-87.8293,1.606,4.46,1111122 
DISL,ioos:station:DISL:BSCA:1,2018-10-01T18:30:00Z,30.3288,-87.8293,1.581,4.83,1111122 
DISL,ioos:station:DISL:BSCA:1,2018-10-01T19:00:00Z,30.3288,-87.8293,1.568,5.23,1111122 
DISL,ioos:station:DISL:BSCA:1,2018-10-01T20:30:00Z,30.3288,-87.8293,1.564,5.28,1111122 
DISL,ioos:station:DISL:BSCA:1,2018-10-01T21:30:00Z,30.3288,-87.8293,1.57,5.56,1111122 
DISL,ioos:station:DISL:BSCA:1,2018-10-01T22:00:00Z,30.3288,-87.8293,1.591,4.46,1111122 
DISL,ioos:station:DISL:BSCA:1,2018-10-01T23:00:00Z,30.3288,-87.8293,1.635,6.26,1111122 
DISL,ioos:station:DISL:BSCA:1,2018-10-02T00:30:00Z,30.3288,-87.8293,1.723,5.59,1111122 
DISL,ioos:station:DISL:BSCA:1,2018-10-02T01:30:00Z,30.3288,-87.8293,1.765,5.1,1111122 
DISL,ioos:station:DISL:BSCA:1,2018-10-02T02:00:00Z,30.3288,-87.8293,1.783,5.72,1111122 
DISL,ioos:station:DISL:BSCA:1,2018-10-02T03:00:00Z,30.3288,-87.8293,1.877,4.98,1111122 
DISL,ioos:station:DISL:BSCA:1,2018-10-02T04:30:00Z,30.3288,-87.8293,1.936,3.27,1111122 
DISL,ioos:station:DISL:BSCA:1,2018-10-02T05:30:00Z,30.3288,-87.8293,1.988,3.32,1111122 
DISL,ioos:station:DISL:BSCA:1,2018-10-02T06:00:00Z,30.3288,-87.8293,2.006,2.91,1111122 
DISL,ioos:station:DISL:BSCA:1,2018-10-02T07:30:00Z,30.3288,-87.8293,2.029,3.48,1111122 
DISL,ioos:station:DISL:BSCA:1,2018-10-02T08:30:00Z,30.3288,-87.8293,2.023,4.23,1111122 
DISL,ioos:station:DISL:BSCA:1,2018-10-02T09:30:00Z,30.3288,-87.8293,2.008,4.26,1111122 
DISL,ioos:station:DISL:BSCA:1,2018-10-02T10:30:00Z,30.3288,-87.8293,1.984,4.59,1111122 
DISL,ioos:station:DISL:BSCA:1,2018-10-02T11:00:00Z,30.3288,-87.8293,1.969,4.12,1111122 
DISL,ioos:station:DISL:BSCA:1,2018-10-02T12:30:00Z,30.3288,-87.8293,1.907,4.2,1111122 
DISL,ioos:station:DISL:BSCA:1,2018-10-02T13:30:00Z,30.3288,-87.8293,1.862,3.54,1111122 
DISL,ioos:station:DISL:BSCA:1,2018-10-02T14:00:00Z,30.3288,-87.8293,1.837,3.77,1111122 
DISL,ioos:station:DISL:BSCA:1,2018-10-02T15:00:00Z,30.3288,-87.8293,1.782,3.35,1111122 
DISL,ioos:station:DISL:BSCA:1,2018-10-02T16:30:00Z,30.3288,-87.8293,1.704,1.69,1111122 
DISL,ioos:station:DISL:BSCA:1,2018-10-02T17:30:00Z,30.3288,-87.8293,1.645,0.92,1111122 
DISL,ioos:station:DISL:BSCA:1,2018-10-02T18:00:00Z,30.3288,-87.8293,1.623,2.0,1111122 
DISL,ioos:station:DISL:BSCA:1,2018-10-02T19:00:00Z,30.3288,-87.8293,1.599,5.08,1111122 
DISL,ioos:station:DISL:BSCA:1,2018-10-02T20:30:00Z,30.3288,-87.8293,1.553,8.4,1111122 
DISL,ioos:station:DISL:BSCA:1,2018-10-02T21:30:00Z,30.3288,-87.8293,1.573,6.57,1111122 
DISL,ioos:station:DISL:BSCA:1,2018-10-02T22:30:00Z,30.3288,-87.8293,1.601,7.44,1111122 
DISL,ioos:station:DISL:BSCA:1,2018-10-02T23:00:00Z,30.3288,-87.8293,1.625,6.31,1111122 
DISL,ioos:station:DISL:BSCA:1,2018-10-03T00:30:00Z,30.3288,-87.8293,1.719,3.24,1111122 
DISL,ioos:station:DISL:BSCA:1,2018-10-03T01:30:00Z,30.3288,-87.8293,1.777,1.77,1111122 
DISL,ioos:station:DISL:BSCA:1,2018-10-03T02:00:00Z,30.3288,-87.8293,1.803,1.28,1111122 
DISL,ioos:station:DISL:BSCA:1,2018-10-03T02:30:00Z,30.3288,-87.8293,1.825,1.6,1111122 
DISL,ioos:station:DISL:BSCA:1,2018-10-03T05:00:00Z,30.3288,-87.8293,1.976,1.26,1111122 
DISL,ioos:station:DISL:BSCA:1,2018-10-03T06:00:00Z,30.3288,-87.8293,2.031,1.33,1111122 
DISL,ioos:station:DISL:BSCA:1,2018-10-03T07:00:00Z,30.3288,-87.8293,2.083,1.69,1111122 
DISL,ioos:station:DISL:BSCA:1,2018-10-03T08:30:00Z,30.3288,-87.8293,2.124,1.34,1111122 
DISL,ioos:station:DISL:BSCA:1,2018-10-03T09:30:00Z,30.3288,-87.8293,2.13,1.23,1111122 
DISL,ioos:station:DISL:BSCA:1,2018-10-03T10:00:00Z,30.3288,-87.8293,2.111,1.05,1111122 
DISL,ioos:station:DISL:BSCA:1,2018-10-03T11:00:00Z,30.3288,-87.8293,2.078,1.2,1111122 
DISL,ioos:station:DISL:BSCA:1,2018-10-03T12:30:00Z,30.3288,-87.8293,2.017,2.98,1111122 
DISL,ioos:station:DISL:BSCA:1,2018-10-03T13:30:00Z,30.3288,-87.8293,1.969,2.83,1111122 
DISL,ioos:station:DISL:BSCA:1,2018-10-03T14:00:00Z,30.3288,-87.8293,1.95,3.85,1111122 
DISL,ioos:station:DISL:BSCA:1,2018-10-03T15:00:00Z,30.3288,-87.8293,1.888,1.33,1111122 
DISL,ioos:station:DISL:BSCA:1,2018-10-03T16:30:00Z,30.3288,-87.8293,1.796,3.0,1111122 
DISL,ioos:station:DISL:BSCA:1,2018-10-03T17:30:00Z,30.3288,-87.8293,1.734,3.18,1111122 
DISL,ioos:station:DISL:BSCA:1,2018-10-03T18:00:00Z,30.3288,-87.8293,1.71,4.15,1111122 
DISL,ioos:station:DISL:BSCA:1,2018-10-03T19:30:00Z,30.3288,-87.8293,1.626,5.55,1111122 
DISL,ioos:station:DISL:BSCA:1,2018-10-03T20:30:00Z,30.3288,-87.8293,1.586,3.91,1111122 
DISL,ioos:station:DISL:BSCA:1,2018-10-03T21:30:00Z,30.3288,-87.8293,1.587,4.46,1111122 
DISL,ioos:station:DISL:BSCA:1,2018-10-03T22:00:00Z,30.3288,-87.8293,1.597,5.64,1111122 
DISL,ioos:station:DISL:BSCA:1,2018-10-03T23:00:00Z,30.3288,-87.8293,1.612,5.13,1111122 
DISL,ioos:station:DISL:BSCA:1,2018-10-04T00:30:00Z,30.3288,-87.8293,1.671,5.48,1111122 
DISL,ioos:station:DISL:BSCA:1,2018-10-04T01:00:00Z,30.3288,-87.8293,1.697,5.41,1111122 
DISL,ioos:station:DISL:BSCA:1,2018-10-04T02:00:00Z,30.3288,-87.8293,1.775,3.81,1111122 
DISL,ioos:station:DISL:BSCA:1,2018-10-04T03:00:00Z,30.3288,-87.8293,1.846,2.86,1111122 
DISL,ioos:station:DISL:BSCA:1,2018-10-04T04:30:00Z,30.3288,-87.8293,1.926,4.85,1111122 
DISL,ioos:station:DISL:BSCA:1,2018-10-04T05:30:00Z,30.3288,-87.8293,1.97,4.14,1111122 
DISL,ioos:station:DISL:BSCA:1,2018-10-04T06:00:00Z,30.3288,-87.8293,1.993,1.56,1111122 
DISL,ioos:station:DISL:BSCA:1,2018-10-04T07:00:00Z,30.3288,-87.8293,2.033,1.02,1111122 
DISL,ioos:station:DISL:BSCA:1,2018-10-04T08:30:00Z,30.3288,-87.8293,2.081,1.1,1111122 
DISL,ioos:station:DISL:BSCA:1,2018-10-04T09:00:00Z,30.3288,-87.8293,2.094,1.34,1111122 
DISL,ioos:station:DISL:BSCA:1,2018-10-04T10:00:00Z,30.3288,-87.8293,2.115,1.48,1111122 
DISL,ioos:station:DISL:BSCA:1,2018-10-04T11:00:00Z,30.3288,-87.8293,2.116,1.36,1111122 
DISL,ioos:station:DISL:BSCA:1,2018-10-04T12:30:00Z,30.3288,-87.8293,2.077,1.25,1111122 
DISL,ioos:station:DISL:BSCA:1,2018-10-04T13:30:00Z,30.3288,-87.8293,2.037,1.34,1111122 
DISL,ioos:station:DISL:BSCA:1,2018-10-04T14:00:00Z,30.3288,-87.8293,2.014,1.39,1111122 
DISL,ioos:station:DISL:BSCA:1,2018-10-04T15:00:00Z,30.3288,-87.8293,1.972,1.18,1111122 
DISL,ioos:station:DISL:BSCA:1,2018-10-04T16:00:00Z,30.3288,-87.8293,1.912,1.05,1111122 
DISL,ioos:station:DISL:BSCA:1,2018-10-04T17:30:00Z,30.3288,-87.8293,1.82,0.94,1111122 
DISL,ioos:station:DISL:BSCA:1,2018-10-04T18:00:00Z,30.3288,-87.8293,1.79,1.92,1111122 
DISL,ioos:station:DISL:BSCA:1,2018-10-04T19:00:00Z,30.3288,-87.8293,1.724,3.93,1111122 
DISL,ioos:station:DISL:BSCA:1,2018-10-04T20:30:00Z,30.3288,-87.8293,1.654,3.8,1111122 
DISL,ioos:station:DISL:BSCA:1,2018-10-04T21:30:00Z,30.3288,-87.8293,1.641,4.01,1111122 
DISL,ioos:station:DISL:BSCA:1,2018-10-04T22:00:00Z,30.3288,-87.8293,1.638,4.41,1111122 
DISL,ioos:station:DISL:BSCA:1,2018-10-04T23:00:00Z,30.3288,-87.8293,1.649,3.81,1111122 
DISL,ioos:station:DISL:BSCA:1,2018-10-05T00:00:00Z,30.3288,-87.8293,1.676,2.85,1111122 
DISL,ioos:station:DISL:BSCA:1,2018-10-05T01:00:00Z,30.3288,-87.8293,1.712,1.51,1111122 
DISL,ioos:station:DISL:BSCA:1,2018-10-05T02:00:00Z,30.3288,-87.8293,1.775,1.91,1111122 
DISL,ioos:station:DISL:BSCA:1,2018-10-05T03:00:00Z,30.3288,-87.8293,1.828,1.2,1111122 
DISL,ioos:station:DISL:BSCA:1,2018-10-05T04:00:00Z,30.3288,-87.8293,1.874,0.66,1111122 
DISL,ioos:station:DISL:BSCA:1,2018-10-05T05:00:00Z,30.3288,-87.8293,1.916,0.64,1111122 
DISL,ioos:station:DISL:BSCA:1,2018-10-05T06:00:00Z,30.3288,-87.8293,1.949,0.5,1111122 
DISL,ioos:station:DISL:BSCA:1,2018-10-05T07:00:00Z,30.3288,-87.8293,1.971,0.45,1111122 
DISL,ioos:station:DISL:BSCA:1,2018-10-05T08:30:00Z,30.3288,-87.8293,2.015,0.63,1111122 
DISL,ioos:station:DISL:BSCA:1,2018-10-05T09:00:00Z,30.3288,-87.8293,2.038,0.65,1111122 
DISL,ioos:station:DISL:BSCA:1,2018-10-05T10:00:00Z,30.3288,-87.8293,2.056,0.82,1111122 
DISL,ioos:station:DISL:BSCA:1,2018-10-05T11:00:00Z,30.3288,-87.8293,2.069,1.63,1111122 
DISL,ioos:station:DISL:BSCA:1,2018-10-05T12:30:00Z,30.3288,-87.8293,2.058,2.68,1111122 
DISL,ioos:station:DISL:BSCA:1,2018-10-05T13:00:00Z,30.3288,-87.8293,2.042,1.58,1111122 
DISL,ioos:station:DISL:BSCA:1,2018-10-05T14:00:00Z,30.3288,-87.8293,2.004,1.29,1111122 
DISL,ioos:station:DISL:BSCA:1,2018-10-05T15:00:00Z,30.3288,-87.8293,1.974,1.32,1111122 
DISL,ioos:station:DISL:BSCA:1,2018-10-05T16:30:00Z,30.3288,-87.8293,1.924,0.6,1111122 
DISL,ioos:station:DISL:BSCA:1,2018-10-05T17:30:00Z,30.3288,-87.8293,1.864,1.11,1111122 
DISL,ioos:station:DISL:BSCA:1,2018-10-05T18:00:00Z,30.3288,-87.8293,1.837,1.38,1111122 
DISL,ioos:station:DISL:BSCA:1,2018-10-05T19:00:00Z,30.3288,-87.8293,1.796,1.2,1111122 
DISL,ioos:station:DISL:BSCA:1,2018-10-05T20:30:00Z,30.3288,-87.8293,1.723,4.02,1111122 
DISL,ioos:station:DISL:BSCA:1,2018-10-05T21:00:00Z,30.3288,-87.8293,1.715,4.25,1111122 
DISL,ioos:station:DISL:BSCA:1,2018-10-05T22:00:00Z,30.3288,-87.8293,1.707,5.17,1111122 
DISL,ioos:station:DISL:BSCA:1,2018-10-05T23:00:00Z,30.3288,-87.8293,1.733,5.28,1111122 
DISL,ioos:station:DISL:BSCA:1,2018-10-06T00:30:00Z,30.3288,-87.8293,1.819,3.23,1111122 
DISL,ioos:station:DISL:BSCA:1,2018-10-06T01:00:00Z,30.3288,-87.8293,1.834,3.39,1111122 
DISL,ioos:station:DISL:BSCA:1,2018-10-06T02:30:00Z,30.3288,-87.8293,1.897,2.34,1111122 
DISL,ioos:station:DISL:BSCA:1,2018-10-06T03:30:00Z,30.3288,-87.8293,1.942,2.55,1111122 
DISL,ioos:station:DISL:BSCA:1,2018-10-06T04:00:00Z,30.3288,-87.8293,1.959,3.1,1111122 
DISL,ioos:station:DISL:BSCA:1,2018-10-06T05:00:00Z,30.3288,-87.8293,1.988,4.17,1111122 
DISL,ioos:station:DISL:BSCA:1,2018-10-06T06:00:00Z,30.3288,-87.8293,2.022,4.64,1111122 
DISL,ioos:station:DISL:BSCA:1,2018-10-06T07:30:00Z,30.3288,-87.8293,2.046,4.61,1111122 
DISL,ioos:station:DISL:BSCA:1,2018-10-06T08:30:00Z,30.3288,-87.8293,2.073,4.49,1111122 
DISL,ioos:station:DISL:BSCA:1,2018-10-06T09:00:00Z,30.3288,-87.8293,2.082,4.68,1111122 
DISL,ioos:station:DISL:BSCA:1,2018-10-06T10:00:00Z,30.3288,-87.8293,2.11,4.43,1111122 
DISL,ioos:station:DISL:BSCA:1,2018-10-06T11:00:00Z,30.3288,-87.8293,2.139,4.39,1111122 
DISL,ioos:station:DISL:BSCA:1,2018-10-06T12:30:00Z,30.3288,-87.8293,2.175,3.66,1111122 
DISL,ioos:station:DISL:BSCA:1,2018-10-06T13:00:00Z,30.3288,-87.8293,2.178,4.11,1111122 
DISL,ioos:station:DISL:BSCA:1,2018-10-06T14:00:00Z,30.3288,-87.8293,2.169,4.09,1111122 
DISL,ioos:station:DISL:BSCA:1,2018-10-06T15:00:00Z,30.3288,-87.8293,2.163,4.12,1111122 
DISL,ioos:station:DISL:BSCA:1,2018-10-06T16:30:00Z,30.3288,-87.8293,2.127,4.69,1111122 
DISL,ioos:station:DISL:BSCA:1,2018-10-06T17:00:00Z,30.3288,-87.8293,2.109,4.94,1111122 
DISL,ioos:station:DISL:BSCA:1,2018-10-06T18:00:00Z,30.3288,-87.8293,2.058,4.14,1111122 
DISL,ioos:station:DISL:BSCA:1,2018-10-06T19:00:00Z,30.3288,-87.8293,1.987,4.81,1111122 
DISL,ioos:station:DISL:BSCA:1,2018-10-06T20:30:00Z,30.3288,-87.8293,1.885,4.83,1111122 
DISL,ioos:station:DISL:BSCA:1,2018-10-06T21:00:00Z,30.3288,-87.8293,1.859,5.63,1111122 
DISL,ioos:station:DISL:BSCA:1,2018-10-06T22:00:00Z,30.3288,-87.8293,1.829,5.33,1111122 
DISL,ioos:station:DISL:BSCA:1,2018-10-06T23:00:00Z,30.3288,-87.8293,1.815,5.21,1111122 
DISL,ioos:station:DISL:BSCA:1,2018-10-07T00:30:00Z,30.3288,-87.8293,1.835,4.33,1111122 
DISL,ioos:station:DISL:BSCA:1,2018-10-07T01:00:00Z,30.3288,-87.8293,1.816,2.86,1111122 
DISL,ioos:station:DISL:BSCA:1,2018-10-07T02:00:00Z,30.3288,-87.8293,1.877,2.6,1111122 
DISL,ioos:station:DISL:BSCA:1,2018-10-07T03:00:00Z,30.3288,-87.8293,1.915,2.9,1111122 
DISL,ioos:station:DISL:BSCA:1,2018-10-07T04:30:00Z,30.3288,-87.8293,1.957,2.68,1111122 
DISL,ioos:station:DISL:BSCA:1,2018-10-07T05:00:00Z,30.3288,-87.8293,1.961,2.64,1111122 
DISL,ioos:station:DISL:BSCA:1,2018-10-07T06:00:00Z,30.3288,-87.8293,1.986,2.35,1111122 
DISL,ioos:station:DISL:BSCA:1,2018-10-07T07:00:00Z,30.3288,-87.8293,1.995,2.47,1111122 
DISL,ioos:station:DISL:BSCA:1,2018-10-07T08:30:00Z,30.3288,-87.8293,1.992,3.54,1111122 
DISL,ioos:station:DISL:BSCA:1,2018-10-07T09:00:00Z,30.3288,-87.8293,1.988,2.69,1111122 
DISL,ioos:station:DISL:BSCA:1,2018-10-07T10:00:00Z,30.3288,-87.8293,1.986,3.37,1111122 
DISL,ioos:station:DISL:BSCA:1,2018-10-07T11:00:00Z,30.3288,-87.8293,2.002,3.13,1111122 
DISL,ioos:station:DISL:BSCA:1,2018-10-07T12:30:00Z,30.3288,-87.8293,2.037,2.55,1111122 
DISL,ioos:station:DISL:BSCA:1,2018-10-07T13:00:00Z,30.3288,-87.8293,2.047,1.91,1111122 
DISL,ioos:station:DISL:BSCA:1,2018-10-07T14:00:00Z,30.3288,-87.8293,2.068,2.48,1111122 
DISL,ioos:station:DISL:BSCA:1,2018-10-07T15:00:00Z,30.3288,-87.8293,2.072,2.5,1111122 
DISL,ioos:station:DISL:BSCA:1,2018-10-07T16:30:00Z,30.3288,-87.8293,2.101,3.69,1111122 
DISL,ioos:station:DISL:BSCA:1,2018-10-07T17:00:00Z,30.3288,-87.8293,2.103,4.04,1111122 
DISL,ioos:station:DISL:BSCA:1,2018-10-07T18:00:00Z,30.3288,-87.8293,2.087,4.04,1111122 
DISL,ioos:station:DISL:BSCA:1,2018-10-07T19:00:00Z,30.3288,-87.8293,2.043,4.14,1111122 
DISL,ioos:station:DISL:BSCA:1,2018-10-07T20:00:00Z,30.3288,-87.8293,1.998,4.24,1111122 
DISL,ioos:station:DISL:BSCA:1,2018-10-07T21:00:00Z,30.3288,-87.8293,1.95,4.85,1111122 
DISL,ioos:station:DISL:BSCA:1,2018-10-07T22:00:00Z,30.3288,-87.8293,1.953,3.38,1111122 
DISL,ioos:station:DISL:BSCA:1,2018-10-07T23:00:00Z,30.3288,-87.8293,1.951,4.51,1111122 
DISL,ioos:station:DISL:BSCA:1,2018-10-08T00:30:00Z,30.3288,-87.8293,1.971,1.59,1111122 
DISL,ioos:station:DISL:BSCA:1,2018-10-08T01:00:00Z,30.3288,-87.8293,1.997,1.62,1111122 
DISL,ioos:station:DISL:BSCA:1,2018-10-08T02:00:00Z,30.3288,-87.8293,2.056,1.48,1111122 
DISL,ioos:station:DISL:BSCA:1,2018-10-08T03:00:00Z,30.3288,-87.8293,2.087,3.58,1111122 
DISL,ioos:station:DISL:BSCA:1,2018-10-08T04:30:00Z,30.3288,-87.8293,2.102,1.33,1111122 
DISL,ioos:station:DISL:BSCA:1,2018-10-08T05:00:00Z,30.3288,-87.8293,2.099,1.68,1111122 
DISL,ioos:station:DISL:BSCA:1,2018-10-08T06:00:00Z,30.3288,-87.8293,2.12,1.44,1111122 
DISL,ioos:station:DISL:BSCA:1,2018-10-08T07:00:00Z,30.3288,-87.8293,2.111,1.01,1111122 
DISL,ioos:station:DISL:BSCA:1,2018-10-08T08:30:00Z,30.3288,-87.8293,2.062,2.05,1111122 
DISL,ioos:station:DISL:BSCA:1,2018-10-08T09:30:00Z,30.3288,-87.8293,2.023,2.39,1111122 
DISL,ioos:station:DISL:BSCA:1,2018-10-08T10:30:00Z,30.3288,-87.8293,2.021,1.41,1111122 
DISL,ioos:station:DISL:BSCA:1,2018-10-08T11:00:00Z,30.3288,-87.8293,2.022,1.98,1111122 
DISL,ioos:station:DISL:BSCA:1,2018-10-08T12:30:00Z,30.3288,-87.8293,2.044,1.72,1111122 
DISL,ioos:station:DISL:BSCA:1,2018-10-08T13:30:00Z,30.3288,-87.8293,2.059,1.68,1111122 
DISL,ioos:station:DISL:BSCA:1,2018-10-08T14:30:00Z,30.3288,-87.8293,2.097,1.82,1111122 
DISL,ioos:station:DISL:BSCA:1,2018-10-08T15:00:00Z,30.3288,-87.8293,2.11,2.21,1111122 
DISL,ioos:station:DISL:BSCA:1,2018-10-08T16:30:00Z,30.3288,-87.8293,2.119,2.96,1111122 
DISL,ioos:station:DISL:BSCA:1,2018-10-08T17:30:00Z,30.3288,-87.8293,2.116,3.21,1111122 
DISL,ioos:station:DISL:BSCA:1,2018-10-08T18:30:00Z,30.3288,-87.8293,2.135,3.25,1111122 
DISL,ioos:station:DISL:BSCA:1,2018-10-08T19:30:00Z,30.3288,-87.8293,2.129,3.62,1111122 
DISL,ioos:station:DISL:BSCA:1,2018-10-08T20:30:00Z,30.3288,-87.8293,2.114,3.88,1111122 
DISL,ioos:station:DISL:BSCA:1,2018-10-08T21:30:00Z,30.3288,-87.8293,2.066,4.22,1111122 
DISL,ioos:station:DISL:BSCA:1,2018-10-08T22:30:00Z,30.3288,-87.8293,2.058,4.03,1111122 
DISL,ioos:station:DISL:BSCA:1,2018-10-08T23:00:00Z,30.3288,-87.8293,2.068,4.36,1111122 
DISL,ioos:station:DISL:BSCA:1,2018-10-09T00:30:00Z,30.3288,-87.8293,2.137,4.62,1111122 
DISL,ioos:station:DISL:BSCA:1,2018-10-09T01:30:00Z,30.3288,-87.8293,2.192,5.07,1111122 
DISL,ioos:station:DISL:BSCA:1,2018-10-09T02:30:00Z,30.3288,-87.8293,2.208,4.89,1111122 
DISL,ioos:station:DISL:BSCA:1,2018-10-09T03:00:00Z,30.3288,-87.8293,2.231,4.63,1111122 
DISL,ioos:station:DISL:BSCA:1,2018-10-09T04:30:00Z,30.3288,-87.8293,2.294,3.58,1111122 
DISL,ioos:station:DISL:BSCA:1,2018-10-09T05:30:00Z,30.3288,-87.8293,2.312,4.26,1111122 
DISL,ioos:station:DISL:BSCA:1,2018-10-09T06:30:00Z,30.3288,-87.8293,2.291,4.29,1111122 
DISL,ioos:station:DISL:BSCA:1,2018-10-09T07:30:00Z,30.3288,-87.8293,2.308,3.9,1111122 
DISL,ioos:station:DISL:BSCA:1,2018-10-09T08:30:00Z,30.3288,-87.8293,2.259,3.63,1111122 
DISL,ioos:station:DISL:BSCA:1,2018-10-09T09:30:00Z,30.3288,-87.8293,2.206,2.71,1111122 
DISL,ioos:station:DISL:BSCA:1,2018-10-09T10:30:00Z,30.3288,-87.8293,2.174,2.71,1111122 
DISL,ioos:station:DISL:BSCA:1,2018-10-09T11:30:00Z,30.3288,-87.8293,2.134,2.66,1111122 
DISL,ioos:station:DISL:BSCA:1,2018-10-09T12:30:00Z,30.3288,-87.8293,2.151,2.98,1111122 
DISL,ioos:station:DISL:BSCA:1,2018-10-09T13:30:00Z,30.3288,-87.8293,2.181,3.34,1111122 
DISL,ioos:station:DISL:BSCA:1,2018-10-09T14:30:00Z,30.3288,-87.8293,2.194,4.0,1111122 
DISL,ioos:station:DISL:BSCA:1,2018-10-09T15:00:00Z,30.3288,-87.8293,2.197,4.13,1111122 
DISL,ioos:station:DISL:BSCA:1,2018-10-09T16:30:00Z,30.3288,-87.8293,2.285,4.62,1111122 
DISL,ioos:station:DISL:BSCA:1,2018-10-09T17:30:00Z,30.3288,-87.8293,2.294,4.5,1111122 
DISL,ioos:station:DISL:BSCA:1,2018-10-09T18:30:00Z,30.3288,-87.8293,2.308,5.12,1111122 
DISL,ioos:station:DISL:BSCA:1,2018-10-09T19:00:00Z,30.3288,-87.8293,2.294,5.1,1111122 
DISL,ioos:station:DISL:BSCA:1,2018-10-09T20:30:00Z,30.3288,-87.8293,2.322,5.85,1111122 
DISL,ioos:station:DISL:BSCA:1,2018-10-09T21:30:00Z,30.3288,-87.8293,2.355,5.26,1111122 
DISL,ioos:station:DISL:BSCA:1,2018-10-09T22:00:00Z,30.3288,-87.8293,2.346,5.16,1111122 
DISL,ioos:station:DISL:BSCA:1,2018-10-09T23:00:00Z,30.3288,-87.8293,2.345,5.18,1111122 
DISL,ioos:station:DISL:BSCA:1,2018-10-10T00:30:00Z,30.3288,-87.8293,2.419,4.76,1111122 
DISL,ioos:station:DISL:BSCA:1,2018-10-10T01:30:00Z,30.3288,-87.8293,2.464,4.45,1111122 
DISL,ioos:station:DISL:BSCA:1,2018-10-10T02:30:00Z,30.3288,-87.8293,2.476,4.99,1111122 
DISL,ioos:station:DISL:BSCA:1,2018-10-10T03:30:00Z,30.3288,-87.8293,2.48,4.72,1111122 
DISL,ioos:station:DISL:BSCA:1,2018-10-10T04:00:00Z,30.3288,-87.8293,2.496,4.63,1111122 
DISL,ioos:station:DISL:BSCA:1,2018-10-10T05:30:00Z,30.3288,-87.8293,2.514,4.07,1111122 
DISL,ioos:station:DISL:BSCA:1,2018-10-10T06:30:00Z,30.3288,-87.8293,2.523,4.34,1111122 
DISL,ioos:station:DISL:BSCA:1,2018-10-10T07:00:00Z,30.3288,-87.8293,2.517,3.81,1111122 
DISL,ioos:station:DISL:BSCA:1,2018-10-10T08:30:00Z,30.3288,-87.8293,2.458,4.42,1111122 
DISL,ioos:station:DISL:BSCA:1,2018-10-10T09:30:00Z,30.3288,-87.8293,2.403,4.25,1111122 
DISL,ioos:station:DISL:BSCA:1,2018-10-10T10:30:00Z,30.3288,-87.8293,2.397,4.38,1111122 
DISL,ioos:station:DISL:BSCA:1,2018-10-10T11:00:00Z,30.3288,-87.8293,2.425,3.87,1111122 
DISL,ioos:station:DISL:BSCA:1,2018-10-10T12:30:00Z,30.3288,-87.8293,2.346,4.77,1111122 
DISL,ioos:station:DISL:BSCA:1,2018-10-10T13:30:00Z,30.3288,-87.8293,2.316,5.2,1111122 
DISL,ioos:station:DISL:BSCA:1,2018-10-10T14:30:00Z,30.3288,-87.8293,2.308,5.17,1111122 
DISL,ioos:station:DISL:BSCA:1,2018-10-10T15:00:00Z,30.3288,-87.8293,2.299,5.33,1111122 
DISL,ioos:station:DISL:BSCA:1,2018-10-10T16:30:00Z,30.3288,-87.8293,2.348,5.43,1111122 
DISL,ioos:station:DISL:BSCA:1,2018-10-10T17:00:00Z,30.3288,-87.8293,2.355,5.67,1111122 
DISL,ioos:station:DISL:BSCA:1,2018-10-10T18:30:00Z,30.3288,-87.8293,2.335,5.83,1111122 
DISL,ioos:station:DISL:BSCA:1,2018-10-10T19:00:00Z,30.3288,-87.8293,2.301,5.87,1111122 
DISL,ioos:station:DISL:BSCA:1,2018-10-10T20:30:00Z,30.3288,-87.8293,2.299,5.86,1111122 
DISL,ioos:station:DISL:BSCA:1,2018-10-10T21:00:00Z,30.3288,-87.8293,2.337,5.81,1111122 
DISL,ioos:station:DISL:BSCA:1,2018-10-10T22:30:00Z,30.3288,-87.8293,2.447,5.86,1111122 
DISL,ioos:station:DISL:BSCA:1,2018-10-10T23:00:00Z,30.3288,-87.8293,2.441,5.84,1111122 
DISL,ioos:station:DISL:BSCA:1,2018-10-11T00:30:00Z,30.3288,-87.8293,2.362,5.89,1111122 
DISL,ioos:station:DISL:BSCA:1,2018-10-11T01:30:00Z,30.3288,-87.8293,2.508,5.32,1111122 
DISL,ioos:station:DISL:BSCA:1,2018-10-11T02:00:00Z,30.3288,-87.8293,2.521,5.52,1111122 
DISL,ioos:station:DISL:BSCA:1,2018-10-11T03:00:00Z,30.3288,-87.8293,2.524,5.26,1111122 
DISL,ioos:station:DISL:BSCA:1,2018-10-11T04:30:00Z,30.3288,-87.8293,2.564,4.9,1111122 
DISL,ioos:station:DISL:BSCA:1,2018-10-11T05:00:00Z,30.3288,-87.8293,2.552,5.25,1111122 
DISL,ioos:station:DISL:BSCA:1,2018-10-11T06:00:00Z,30.3288,-87.8293,2.506,5.25,1111122 
DISL,ioos:station:DISL:BSCA:1,2018-10-11T07:00:00Z,30.3288,-87.8293,2.456,5.47,1111122 
DISL,ioos:station:DISL:BSCA:1,2018-10-11T08:30:00Z,30.3288,-87.8293,2.331,5.43,1111122 
DISL,ioos:station:DISL:BSCA:1,2018-10-11T09:30:00Z,30.3288,-87.8293,2.273,5.22,1111122 
DISL,ioos:station:DISL:BSCA:1,2018-10-11T10:30:00Z,30.3288,-87.8293,2.204,5.23,1111122 
DISL,ioos:station:DISL:BSCA:1,2018-10-11T11:30:00Z,30.3288,-87.8293,2.128,5.42,1111122 
DISL,ioos:station:DISL:BSCA:1,2018-10-11T12:00:00Z,30.3288,-87.8293,2.089,5.48,1111122 
DISL,ioos:station:DISL:BSCA:1,2018-10-11T13:30:00Z,30.3288,-87.8293,1.992,5.47,1111122 
DISL,ioos:station:DISL:BSCA:1,2018-10-11T14:30:00Z,30.3288,-87.8293,1.95,5.53,1111122 
DISL,ioos:station:DISL:BSCA:1,2018-10-11T15:30:00Z,30.3288,-87.8293,1.895,5.69,1111122 
DISL,ioos:station:DISL:BSCA:1,2018-10-11T16:30:00Z,30.3288,-87.8293,1.868,5.99,1111122 
DISL,ioos:station:DISL:BSCA:1,2018-10-11T17:30:00Z,30.3288,-87.8293,1.869,5.99,1111122 
DISL,ioos:station:DISL:BSCA:1,2018-10-11T18:30:00Z,30.3288,-87.8293,1.895,6.95,1111122 
DISL,ioos:station:DISL:BSCA:1,2018-10-11T19:30:00Z,30.3288,-87.8293,1.943,7.56,1111122 
DISL,ioos:station:DISL:BSCA:1,2018-10-11T20:30:00Z,30.3288,-87.8293,1.994,7.25,1111122 
DISL,ioos:station:DISL:BSCA:1,2018-10-11T21:30:00Z,30.3288,-87.8293,2.02,6.35,1111122 
DISL,ioos:station:DISL:BSCA:1,2018-10-11T22:30:00Z,30.3288,-87.8293,2.055,6.44,1111122 
DISL,ioos:station:DISL:BSCA:1,2018-10-11T23:00:00Z,30.3288,-87.8293,2.057,6.42,1111122 
DISL,ioos:station:DISL:BSCA:1,2018-10-12T00:30:00Z,30.3288,-87.8293,2.08,5.83,1111122 
DISL,ioos:station:DISL:BSCA:1,2018-10-12T01:30:00Z,30.3288,-87.8293,2.064,5.69,1111122 
DISL,ioos:station:DISL:BSCA:1,2018-10-12T02:30:00Z,30.3288,-87.8293,2.078,5.34,1111122 
DISL,ioos:station:DISL:BSCA:1,2018-10-12T03:00:00Z,30.3288,-87.8293,2.09,5.68,1111122 
DISL,ioos:station:DISL:BSCA:1,2018-10-12T04:30:00Z,30.3288,-87.8293,2.093,5.97,1111122 
DISL,ioos:station:DISL:BSCA:1,2018-10-12T05:30:00Z,30.3288,-87.8293,2.073,6.1,1111122 
DISL,ioos:station:DISL:BSCA:1,2018-10-12T06:30:00Z,30.3288,-87.8293,2.032,5.93,1111122 
DISL,ioos:station:DISL:BSCA:1,2018-10-12T07:00:00Z,30.3288,-87.8293,2.011,5.95,1111122 
DISL,ioos:station:DISL:BSCA:1,2018-10-12T08:30:00Z,30.3288,-87.8293,1.899,6.25,1111122 